Home > Weather > Uruguaiana > Past weeks

Flag for Brazil Weather for the Past 2 Weeks in Uruguaiana, Rio Grande do Sul, Brazil

Now
73 °F

Clear.


Feels Like: 70 °F
Forecast: 76 / 95 °F
Wind: 5 mph from Northeast

Location: Pelotas Airport

Current Time: Feb 12, 2016 at 2:59:20 AM

Latest Report: Feb 12, 2016 at 2:00 AM


Visibility: 10 mi

Pressure: 29.92 "Hg

Humidity: 94%

Dew point: 72 °F

Location of UruguaianaLocation

Historic Weather in Uruguaiana — Graph

°F

Uruguaiana Temperature Yesterday

Maximum temperature yesterday: 88 °F (at 3:00 PM)
Minimum temperature yesterday: 68 °F (at 8:00 AM)
Average temperature yesterday: 78 °F

High & Low Weather Summary for the Past Weeks

 TemperatureHumidityPressure
High99 °F (Feb 8, 1:00 PM)100% (Jan 29, 4:00 AM)30.09 "Hg (Jan 29, 4:00 AM)
Low36 °F (Jan 29, 6:00 PM)32% (Feb 2, 4:00 AM)29.74 "Hg (Feb 9, 4:00 AM)
Average76 °F79%29.95 "Hg
* Reported Jan 28 1:00 AM — Feb 12 1:00 AM, Uruguaiana, Weather by CustomWeather, © 2016

Note: Actual official high and low records may vary slightly from our data, if they occured in-between our weather recording intervals... More about our weather records

Advertising

Uruguaiana Weather History for the Previous 24 Hours

 ConditionsComfort  
Time TempWeatherWind HumidityBarometerVisibility
1:00 AM
Fri, Feb 12
75 °FPassing clouds.7 mph89%29.92 "HgN/A
12:00 AM75 °FPassing clouds.9 mph89%29.92 "HgN/A
11:00 PM
Thu, Feb 11
75 °FPassing clouds.9 mph89%29.95 "HgN/A
10:00 PM77 °FPassing clouds.9 mph83%29.92 "HgN/A
9:00 PM77 °FPassing clouds.9 mph83%29.92 "HgN/A
8:00 PM81 °FScattered clouds.14 mph74%29.92 "HgN/A
7:00 PM82 °FScattered clouds.14 mph70%29.92 "HgN/A
6:00 PM86 °FScattered clouds.14 mph66%29.92 "HgN/A
5:00 PM86 °FScattered clouds.13 mph62%29.95 "HgN/A
4:00 PM86 °FScattered clouds.15 mph66%29.95 "HgN/A
3:00 PM88 °FScattered clouds.10 mph62%29.98 "HgN/A
2:00 PM86 °FPartly sunny.9 mph62%29.98 "HgN/A
1:00 PM84 °FPartly sunny.12 mph70%29.98 "HgN/A
12:00 PM82 °FPartly sunny.12 mph74%29.98 "HgN/A
11:00 AM84 °FPartly sunny.9 mph70%30.01 "HgN/A
10:00 AM82 °FScattered clouds.2 mph74%30.01 "HgN/A
9:00 AM75 °FScattered clouds.3 mph94%30.01 "HgN/A
8:00 AM68 °FScattered clouds.3 mph100%29.98 "HgN/A
7:00 AM70 °FPassing clouds.2 mph94%29.98 "HgN/A
6:00 AM70 °FPassing clouds.2 mph100%29.98 "HgN/A
5:00 AM72 °FPassing clouds.3 mph94%29.98 "HgN/A
4:00 AM70 °FPassing clouds.5 mph94%29.98 "HgN/A
3:00 AM73 °FPartly cloudy.5 mph89%29.98 "HgN/A
2:00 AM73 °FPartly cloudy.2 mph94%30.01 "HgN/A
Weather by CustomWeather, © 2016

See weather overviewHow to use our weather pages